sat.trackr.live / text

‹ back to catalog

STARLINK-35099

NORAD 65735 · 2025-216B

PAYLOAD ACTIVE UNKNOWN

§ Identity

Operator
Country
US
Launch date
2025-09-25
Launch site
AFETR
Launch vehicle
Mass (kg)
RCS (m²)

Purposes: comms

External: N2YO · Heavens-Above · Gunter

§ Orbital elements

Epoch: 2026-09-20T23:08:27.273984Z

Period
93.85 min
Inclination
53.1579°
Eccentricity
0.0000780
Mean motion
15.34408396 rev/d
Perigee alt
462.1 km
Apogee alt
463.2 km
Semi-major
6,840.8 km
B*
6.2625e-4
RAAN
143.5482°
Arg perigee
70.3926°
Mean anomaly
289.7161°
Rev number
5,644

§ Raw data

STARLINK-350991 65735U 25216B   26263.96420456  .00020847  00000+0  62625-3 0  99912 65735  53.1579 143.5482 0000780  70.3926 289.7161 15.34408396 56443

JSON: /api/v1/satellites/65735 · /tle

For live sub-satellite position, see the globe view (requires WebGL).

§ Visibility from observer

Set your observer location to see the next 7 days of passes ≥ 10°. The values pass through the URL so the page stays shareable.

No JS? Fill the form by hand. The geolocation button needs JavaScript.